TimeCST,TemperatureF,Dew PointF,Humidity,Sea Level PressureIn,VisibilityMPH,Wind Direction,Wind SpeedMPH,Gust SpeedMPH,PrecipitationIn,Events,Conditions,WindDirDegrees,DateUTC
12:15 AM,41.0,35.6,81,30.11,10.0,South,10.4,-,N/A,,Clear,190,2012-11-29 06:15:00
12:35 AM,42.8,35.6,76,30.10,10.0,South,10.4,-,N/A,,Clear,190,2012-11-29 06:35:00
12:55 AM,42.8,35.6,76,30.10,10.0,SSW,9.2,-,N/A,,Clear,210,2012-11-29 06:55:00
1:15 AM,44.6,37.4,76,30.10,10.0,South,11.5,-,N/A,,Clear,190,2012-11-29 07:15:00
1:35 AM,46.4,37.4,71,30.09,10.0,South,13.8,-,N/A,,Clear,180,2012-11-29 07:35:00
1:55 AM,48.2,37.4,66,30.09,10.0,South,16.1,-,N/A,,Clear,180,2012-11-29 07:55:00
2:15 AM,48.2,37.4,66,30.09,10.0,South,15.0,-,N/A,,Clear,180,2012-11-29 08:15:00
2:35 AM,48.2,37.4,66,30.09,10.0,South,13.8,-,N/A,,Clear,180,2012-11-29 08:35:00
2:55 AM,48.2,37.4,66,30.09,10.0,South,13.8,-,N/A,,Clear,180,2012-11-29 08:55:00
3:15 AM,46.4,37.4,71,30.09,10.0,South,12.7,-,N/A,,Clear,180,2012-11-29 09:15:00
3:35 AM,46.4,37.4,71,30.08,10.0,South,11.5,17.3,N/A,,Clear,180,2012-11-29 09:35:00
3:55 AM,46.4,37.4,71,30.08,10.0,South,15.0,-,N/A,,Clear,180,2012-11-29 09:55:00
4:15 AM,46.4,37.4,71,30.07,10.0,South,16.1,-,N/A,,Clear,180,2012-11-29 10:15:00
4:35 AM,46.4,37.4,71,30.07,10.0,South,12.7,-,N/A,,Clear,180,2012-11-29 10:35:00
4:55 AM,46.4,37.4,71,30.06,10.0,South,12.7,-,N/A,,Clear,180,2012-11-29 10:55:00
6:15 AM,44.6,37.4,76,30.06,10.0,South,15.0,-,N/A,,Scattered Clouds,180,2012-11-29 12:15:00
7:50 AM,44.6,39.2,81,30.06,10.0,SSW,11.5,-,N/A,,Mostly Cloudy,200,2012-11-29 13:50:00
9:50 AM,55.4,41.0,58,30.06,10.0,South,17.3,25.3,N/A,,Scattered Clouds,190,2012-11-29 15:50:00
10:50 AM,59.0,42.8,55,30.06,10.0,South,19.6,25.3,N/A,,Partly Cloudy,190,2012-11-29 16:50:00
11:50 AM,62.6,44.6,52,30.05,10.0,South,17.3,24.2,N/A,,Partly Cloudy,190,2012-11-29 17:50:00
12:50 PM,68.0,44.6,43,30.01,10.0,South,17.3,25.3,N/A,,Partly Cloudy,180,2012-11-29 18:50:00
1:50 PM,69.8,44.6,40,29.98,10.0,South,17.3,24.2,N/A,,Partly Cloudy,190,2012-11-29 19:50:00
2:50 PM,69.8,44.6,40,29.94,10.0,SSW,21.9,29.9,N/A,,Clear,200,2012-11-29 20:50:00
3:50 PM,69.8,44.6,40,29.94,10.0,South,19.6,27.6,N/A,,Clear,190,2012-11-29 21:50:00
4:50 PM,66.2,44.6,46,29.96,10.0,SSW,19.6,-,N/A,,Clear,200,2012-11-29 22:50:00
5:50 PM,60.8,44.6,55,29.97,10.0,South,10.4,-,N/A,,Clear,190,2012-11-29 23:50:00
7:50 PM,48.2,41.0,76,29.99,10.0,SSE,9.2,-,N/A,,Clear,150,2012-11-30 01:50:00
8:15 PM,46.4,41.0,81,30.00,10.0,South,4.6,-,N/A,,Clear,170,2012-11-30 02:15:00
8:35 PM,46.4,41.0,81,30.00,10.0,SSE,5.8,-,N/A,,Clear,160,2012-11-30 02:35:00
8:50 PM,46.4,41.0,81,30.01,10.0,South,8.1,-,N/A,,Clear,170,2012-11-30 02:50:00
8:55 PM,46.4,41.0,81,30.01,10.0,SSE,6.9,-,N/A,,Clear,160,2012-11-30 02:55:00
9:15 PM,44.6,39.2,81,30.01,10.0,South,10.4,16.1,N/A,,Clear,170,2012-11-30 03:15:00
9:35 PM,48.2,39.2,71,30.01,10.0,South,9.2,-,N/A,,Clear,170,2012-11-30 03:35:00
9:55 PM,46.4,37.4,71,30.01,10.0,South,8.1,-,N/A,,Clear,170,2012-11-30 03:55:00
10:15 PM,46.4,37.4,71,30.02,10.0,SSE,8.1,-,N/A,,Clear,160,2012-11-30 04:15:00
10:35 PM,44.6,35.6,71,30.02,10.0,SSE,8.1,-,N/A,,Clear,150,2012-11-30 04:35:00
10:55 PM,44.6,35.6,71,30.01,10.0,SE,8.1,-,N/A,,Clear,140,2012-11-30 04:55:00
11:15 PM,42.8,35.6,76,30.02,10.0,SE,6.9,-,N/A,,Clear,140,2012-11-30 05:15:00
11:35 PM,42.8,35.6,76,30.02,10.0,SE,4.6,-,N/A,,Clear,140,2012-11-30 05:35:00
11:55 PM,42.8,35.6,76,30.02,10.0,SSE,5.8,-,N/A,,Clear,150,2012-11-30 05:55:00